START_TIME,STEP,MOV.,M34,t_acc.,L5,t_acc.,L18,t_acc.,L14,t_acc.
1979-07-24 09:00:24.190 ,0,0,1.,12.0,0.,12.0,0.,12.0,0.,12.0
1979-07-24 09:00:36.190 ,0,0,0.,12.0,0.,12.0,0.,12.0,0.,12.0
1979-07-24 09:00:48.190 ,0,1,0.,12.0,0.,12.0,0.,12.0,0.,12.0
1979-07-24 09:01:00.190 ,0,1,0.,12.0,0.,12.0,0.,12.0,0.,12.0
1979-07-24 09:01:12.190 ,0,0,0.,12.0,0.,12.0,0.,12.0,0.,12.0
1979-07-24 09:01:24.190 ,0,0,1.,12.0,0.,12.0,0.,12.0,0.,12.0
1979-07-24 09:01:36.190 ,1,1,0.,12.0,0.,12.0,0.,12.0,0.,12.0
1979-07-24 09:01:48.190 ,1,1,0.,12.0,0.,12.0,0.,12.0,0.,12.0
1979-07-24 09:02:00.190 ,1,0,0.,12.0,0.,12.0,0.,12.0,0.,12.0
1979-07-24 09:02:12.190 ,1,0,0.,12.0,0.,12.0,0.,12.0,0.,12.0
1979-07-24 09:02:24.190 ,2,1,0.,12.0,0.,12.0,0.,12.0,0.,12.0
1979-07-24 09:02:36.190 ,2,1,0.,12.0,0.,12.0,0.,12.0,0.,12.0
1979-07-24 09:02:48.190 ,2,0,1.,12.0,0.,12.0,0.,12.0,0.,12.0
1979-07-24 09:03:00.190 ,2,0,0.,12.0,0.,12.0,0.,12.0,0.,12.0
1979-07-24 09:03:12.190 ,3,1,0.,12.0,0.,12.0,0.,12.0,0.,12.0
1979-07-24 09:03:24.190 ,3,1,1.,12.0,0.,12.0,0.,12.0,0.,12.0
1979-07-24 09:03:36.190 ,3,0,0.,12.0,0.,12.0,0.,12.0,0.,12.0
1979-07-24 09:03:48.190 ,3,0,0.,12.0,0.,12.0,0.,12.0,0.,12.0
1979-07-24 09:04:00.190 ,4,1,0.,12.0,0.,12.0,0.,12.0,0.,12.0
1979-07-24 09:04:12.190 ,4,1,0.,12.0,0.,12.0,0.,12.0,0.,12.0
1979-07-24 09:04:24.190 ,4,0,0.,12.0,0.,12.0,0.,12.0,0.,12.0
1979-07-24 09:04:36.190 ,4,0,0.,12.0,0.,12.0,0.,12.0,0.,12.0
1979-07-24 09:04:48.190 ,5,1,0.,12.0,0.,12.0,0.,12.0,0.,12.0
1979-07-24 09:05:00.190 ,5,1,1.,12.0,0.,12.0,0.,12.0,0.,12.0
1979-07-24 09:05:12.190 ,5,0,0.,12.0,0.,12.0,0.,12.0,0.,12.0
1979-07-24 09:05:24.190 ,5,0,0.,12.0,0.,12.0,0.,12.0,0.,12.0
1979-07-24 09:05:36.190 ,6,1,0.,12.0,0.,12.0,0.,12.0,0.,12.0
1979-07-24 09:05:48.190 ,6,1,0.,12.0,0.,12.0,0.,12.0,0.,12.0
1979-07-24 09:06:00.190 ,6,0,0.,12.0,0.,12.0,0.,12.0,0.,12.0
1979-07-24 09:06:12.190 ,6,0,0.,12.0,0.,12.0,0.,12.0,0.,12.0
1979-07-24 09:06:24.190 ,7,0,0.,12.0,0.,12.0,0.,12.0,0.,12.0
1979-07-24 09:06:36.190 ,7,0,0.,12.0,0.,12.0,0.,12.0,0.,12.0
1979-07-24 09:06:48.190 ,7,0,0.,12.0,0.,12.0,0.,12.0,0.,12.0
1979-07-24 09:07:00.190 ,7,0,0.,12.0,0.,12.0,0.,12.0,0.,12.0
1979-07-24 09:07:12.190 ,4,1,0.,12.0,0.,12.0,0.,12.0,0.,12.0
1979-07-24 09:07:24.190 ,4,1,0.,12.0,0.,12.0,0.,12.0,0.,12.0
1979-07-24 09:07:36.190 ,0,1,0.,12.0,0.,12.0,0.,12.0,0.,12.0
1979-07-24 09:07:48.190 ,0,1,0.,12.0,0.,12.0,0.,12.0,0.,12.0
1979-07-24 09:08:00.190 ,3,1,0.,12.0,0.,12.0,0.,12.0,0.,12.0
1979-07-24 09:08:12.190 ,3,1,0.,12.0,0.,12.0,0.,12.0,0.,12.0
1979-07-24 09:08:24.190 ,7,1,0.,12.0,0.,12.0,0.,12.0,0.,12.0
1979-07-24 09:08:36.190 ,7,1,0.,12.0,0.,12.0,0.,12.0,0.,12.0
1979-07-24 09:08:48.190 ,4,1,0.,12.0,0.,12.0,0.,12.0,0.,12.0
1979-07-24 09:09:00.190 ,4,1,0.,12.0,0.,12.0,0.,12.0,0.,12.0
1979-07-24 09:09:12.190 ,0,1,0.,12.0,0.,12.0,0.,12.0,0.,12.0
1979-07-24 09:09:24.190 ,0,1,0.,12.0,0.,12.0,0.,12.0,0.,12.0
1979-07-24 09:09:36.190 ,3,1,0.,12.0,0.,12.0,0.,12.0,0.,12.0
1979-07-24 09:09:48.190 ,3,1,0.,12.0,0.,12.0,0.,12.0,0.,12.0
1979-07-24 09:10:00.190 ,7,1,0.,12.0,0.,12.0,0.,12.0,0.,12.0
1979-07-24 09:10:12.190 ,7,1,0.,12.0,0.,12.0,0.,12.0,0.,12.0
1979-07-24 09:10:24.190 ,4,1,0.,12.0,0.,12.0,0.,12.0,0.,12.0
1979-07-24 09:10:36.190 ,4,1,0.,12.0,0.,12.0,0.,12.0,0.,12.0
1979-07-24 09:10:48.190 ,0,1,0.,12.0,0.,12.0,0.,12.0,0.,12.0
1979-07-24 09:11:00.190 ,0,1,0.,12.0,0.,12.0,0.,12.0,0.,12.0
1979-07-24 09:11:12.190 ,3,1,1.,12.0,0.,12.0,0.,12.0,0.,12.0
1979-07-24 09:11:24.190 ,3,1,0.,12.0,0.,12.0,0.,12.0,0.,12.0
1979-07-24 09:11:36.190 ,7,1,0.,12.0,0.,12.0,0.,12.0,0.,12.0
1979-07-24 09:11:48.190 ,7,1,0.,12.0,0.,12.0,0.,12.0,0.,12.0
1979-07-24 09:12:00.190 ,4,1,0.,12.0,0.,12.0,0.,12.0,0.,12.0
1979-07-24 09:12:12.190 ,4,1,0.,12.0,0.,12.0,0.,12.0,0.,12.0
1979-07-24 09:12:24.190 ,0,1,0.,12.0,0.,12.0,0.,12.0,0.,12.0
1979-07-24 09:12:36.190 ,0,1,0.,12.0,0.,12.0,0.,12.0,0.,12.0
1979-07-24 09:12:48.190 ,3,1,0.,12.0,0.,12.0,0.,12.0,0.,12.0
1979-07-24 09:13:00.190 ,3,1,0.,12.0,0.,12.0,0.,12.0,0.,12.0
1979-07-24 09:13:12.190 ,7,1,0.,12.0,0.,12.0,0.,12.0,0.,12.0
1979-07-24 09:13:24.190 ,7,1,0.,12.0,0.,12.0,0.,12.0,0.,12.0
1979-07-24 09:13:36.190 ,4,1,0.,12.0,0.,12.0,0.,12.0,0.,12.0
1979-07-24 09:13:48.190 ,4,1,0.,12.0,0.,12.0,0.,12.0,0.,12.0
1979-07-24 09:14:00.190 ,0,1,0.,12.0,0.,12.0,0.,12.0,0.,12.0
1979-07-24 09:14:12.190 ,0,1,0.,12.0,0.,12.0,0.,12.0,0.,12.0
1979-07-24 09:14:24.190 ,3,1,0.,12.0,0.,12.0,0.,12.0,0.,12.0
1979-07-24 09:14:36.190 ,3,1,0.,12.0,0.,12.0,0.,12.0,0.,12.0
1979-07-24 09:14:48.190 ,7,1,0.,12.0,0.,12.0,0.,12.0,0.,12.0
1979-07-24 09:15:00.190 ,7,1,0.,12.0,0.,12.0,0.,12.0,0.,12.0
1979-07-24 09:15:12.190 ,4,1,0.,12.0,0.,12.0,0.,12.0,0.,12.0
1979-07-24 09:15:24.190 ,4,1,0.,12.0,0.,12.0,0.,12.0,0.,12.0
1979-07-24 09:15:36.190 ,0,1,0.,12.0,0.,12.0,0.,12.0,0.,12.0
1979-07-24 09:15:48.190 ,0,1,0.,12.0,0.,12.0,0.,12.0,0.,12.0
1979-07-24 09:16:00.190 ,3,1,0.,12.0,0.,12.0,0.,12.0,0.,12.0
1979-07-24 09:16:12.190 ,3,1,0.,12.0,0.,12.0,0.,12.0,0.,12.0
1979-07-24 09:16:24.190 ,7,1,0.,12.0,0.,12.0,0.,12.0,0.,12.0
1979-07-24 09:16:36.190 ,7,1,0.,12.0,0.,12.0,0.,12.0,0.,12.0
1979-07-24 09:16:48.190 ,4,1,0.,12.0,0.,12.0,0.,12.0,0.,12.0
1979-07-24 09:17:00.190 ,4,1,0.,12.0,0.,12.0,0.,12.0,0.,12.0
1979-07-24 09:17:12.190 ,0,1,0.,12.0,0.,12.0,0.,12.0,0.,12.0
1979-07-24 09:17:24.190 ,0,1,0.,12.0,0.,12.0,0.,12.0,0.,12.0
1979-07-24 09:17:36.190 ,0,0,0.,12.0,0.,12.0,0.,12.0,0.,12.0
1979-07-24 09:17:48.190 ,0,0,0.,12.0,0.,12.0,0.,12.0,0.,12.0
1979-07-24 09:18:00.190 ,0,0,0.,12.0,0.,12.0,0.,12.0,0.,12.0
1979-07-24 09:18:12.190 ,0,0,0.,12.0,0.,12.0,0.,12.0,0.,12.0
1979-07-24 09:18:24.190 ,5,1,0.,12.0,0.,12.0,0.,12.0,0.,12.0
1979-07-24 09:18:36.190 ,5,1,1.,12.0,0.,12.0,0.,12.0,0.,12.0
1979-07-24 09:18:48.190 ,5,0,0.,12.0,0.,12.0,0.,12.0,0.,12.0
1979-07-24 09:19:00.190 ,5,0,0.,12.0,0.,12.0,0.,12.0,0.,12.0
1979-07-24 09:19:12.190 ,4,1,0.,12.0,0.,12.0,0.,12.0,0.,12.0
1979-07-24 09:19:24.190 ,4,1,0.,12.0,0.,12.0,0.,12.0,0.,12.0
1979-07-24 09:19:36.190 ,4,0,0.,12.0,0.,12.0,0.,12.0,0.,12.0
1979-07-24 09:19:48.190 ,4,0,0.,12.0,0.,12.0,0.,12.0,0.,12.0
1979-07-24 09:20:00.190 ,3,1,0.,12.0,0.,12.0,0.,12.0,0.,12.0
1979-07-24 09:20:12.190 ,3,1,0.,12.0,0.,12.0,0.,12.0,0.,12.0
1979-07-24 09:20:24.190 ,3,0,0.,12.0,0.,12.0,0.,12.0,0.,12.0
1979-07-24 09:20:36.190 ,3,0,0.,12.0,0.,12.0,0.,12.0,0.,12.0
1979-07-24 09:20:48.190 ,2,1,0.,12.0,0.,12.0,0.,12.0,0.,12.0
1979-07-24 09:21:00.190 ,2,1,0.,12.0,0.,12.0,0.,12.0,0.,12.0
1979-07-24 09:21:12.190 ,2,0,2.,12.0,0.,12.0,0.,12.0,0.,12.0
1979-07-24 09:21:24.190 ,2,0,0.,12.0,0.,12.0,0.,12.0,0.,12.0
1979-07-24 09:21:36.190 ,1,1,1.,12.0,0.,12.0,0.,12.0,0.,12.0
1979-07-24 09:21:48.190 ,1,1,0.,12.0,0.,12.0,0.,12.0,0.,12.0
1979-07-24 09:22:00.190 ,1,0,0.,12.0,0.,12.0,0.,12.0,0.,12.0
1979-07-24 09:22:12.190 ,1,0,0.,12.0,0.,12.0,0.,12.0,0.,12.0
1979-07-24 09:22:24.190 ,0,1,0.,12.0,0.,12.0,0.,12.0,0.,12.0
1979-07-24 09:22:36.190 ,0,1,0.,12.0,0.,12.0,0.,12.0,0.,12.0
1979-07-24 09:22:48.190 ,0,0,0.,12.0,0.,12.0,0.,12.0,0.,12.0
1979-07-24 09:23:00.190 ,0,0,0.,12.0,0.,12.0,0.,12.0,0.,12.0
1979-07-24 09:23:12.190 ,0,1,0.,12.0,0.,12.0,0.,12.0,0.,12.0
1979-07-24 09:23:24.190 ,0,1,0.,12.0,0.,12.0,0.,12.0,0.,12.0
1979-07-24 09:23:36.190 ,0,0,0.,12.0,0.,12.0,0.,12.0,0.,12.0
1979-07-24 09:23:48.190 ,0,0,0.,12.0,0.,12.0,0.,12.0,0.,12.0
1979-07-24 09:24:00.190 ,1,1,0.,12.0,0.,12.0,0.,12.0,0.,12.0
1979-07-24 09:24:12.190 ,1,1,0.,12.0,0.,12.0,0.,12.0,0.,12.0
1979-07-24 09:24:24.190 ,1,0,0.,12.0,0.,12.0,0.,12.0,0.,12.0
1979-07-24 09:24:36.190 ,1,0,0.,12.0,0.,12.0,0.,12.0,0.,12.0
1979-07-24 09:24:48.190 ,2,1,0.,12.0,0.,12.0,0.,12.0,0.,12.0
1979-07-24 09:25:00.190 ,2,1,0.,12.0,0.,12.0,0.,12.0,0.,12.0
1979-07-24 09:25:12.190 ,2,0,0.,12.0,0.,12.0,0.,12.0,0.,12.0
1979-07-24 09:25:24.190 ,2,0,0.,12.0,0.,12.0,0.,12.0,0.,12.0
1979-07-24 09:25:36.190 ,3,1,1.,12.0,0.,12.0,0.,12.0,0.,12.0
1979-07-24 09:25:48.190 ,3,1,0.,12.0,0.,12.0,0.,12.0,0.,12.0
1979-07-24 09:26:00.190 ,3,0,0.,12.0,0.,12.0,0.,12.0,0.,12.0
1979-07-24 09:26:12.190 ,3,0,1.,12.0,0.,12.0,0.,12.0,0.,12.0
1979-07-24 09:26:24.190 ,4,1,0.,12.0,0.,12.0,0.,12.0,0.,12.0
1979-07-24 09:26:36.190 ,4,1,0.,12.0,0.,12.0,0.,12.0,0.,12.0
1979-07-24 09:26:48.190 ,4,0,1.,12.0,0.,12.0,0.,12.0,0.,12.0
1979-07-24 09:27:00.190 ,4,0,0.,12.0,0.,12.0,0.,12.0,0.,12.0
1979-07-24 09:27:12.190 ,5,1,0.,12.0,0.,12.0,0.,12.0,0.,12.0
1979-07-24 09:27:24.190 ,5,1,0.,12.0,0.,12.0,0.,12.0,0.,12.0
1979-07-24 09:27:36.190 ,5,0,0.,12.0,0.,12.0,0.,12.0,0.,12.0
1979-07-24 09:27:48.190 ,5,0,0.,12.0,0.,12.0,0.,12.0,0.,12.0
1979-07-24 09:28:00.190 ,6,1,0.,12.0,0.,12.0,0.,12.0,0.,12.0
1979-07-24 09:28:12.190 ,6,1,0.,12.0,0.,12.0,0.,12.0,0.,12.0
1979-07-24 09:28:24.190 ,6,0,0.,12.0,0.,12.0,0.,12.0,0.,12.0
1979-07-24 09:28:36.190 ,6,0,0.,12.0,0.,12.0,0.,12.0,0.,12.0
1979-07-24 09:28:48.190 ,7,1,0.,12.0,0.,12.0,0.,12.0,0.,12.0
1979-07-24 09:29:00.190 ,7,1,0.,12.0,0.,12.0,0.,12.0,0.,12.0
1979-07-24 09:29:12.190 ,7,0,0.,12.0,0.,12.0,0.,12.0,0.,12.0
1979-07-24 09:29:24.190 ,7,0,0.,12.0,0.,12.0,0.,12.0,0.,12.0
1979-07-24 09:29:36.190 ,7,1,0.,12.0,0.,12.0,0.,12.0,0.,12.0
1979-07-24 09:29:48.190 ,7,1,0.,12.0,0.,12.0,0.,12.0,0.,12.0
1979-07-24 09:30:00.190 ,7,0,0.,12.0,0.,12.0,0.,12.0,0.,12.0
1979-07-24 09:30:12.190 ,7,0,0.,12.0,0.,12.0,0.,12.0,0.,12.0
1979-07-24 09:30:24.190 ,6,1,0.,12.0,0.,12.0,0.,12.0,0.,12.0
1979-07-24 09:30:36.190 ,6,1,0.,12.0,0.,12.0,0.,12.0,0.,12.0
1979-07-24 09:30:48.190 ,6,0,0.,12.0,0.,12.0,0.,12.0,0.,12.0
1979-07-24 09:31:00.190 ,6,0,0.,12.0,0.,12.0,0.,12.0,0.,12.0
1979-07-24 09:31:12.190 ,5,1,0.,12.0,0.,12.0,0.,12.0,0.,12.0
1979-07-24 09:31:24.190 ,5,1,0.,12.0,0.,12.0,0.,12.0,0.,12.0
1979-07-24 09:31:36.190 ,5,0,0.,12.0,0.,12.0,0.,12.0,0.,12.0
1979-07-24 09:31:48.190 ,5,0,0.,12.0,0.,12.0,0.,12.0,0.,12.0
1979-07-24 09:32:00.190 ,4,1,0.,12.0,0.,12.0,0.,12.0,0.,12.0
1979-07-24 09:32:12.190 ,4,1,0.,12.0,0.,12.0,0.,12.0,0.,12.0
1979-07-24 09:32:24.190 ,4,0,0.,12.0,0.,12.0,0.,12.0,0.,12.0
1979-07-24 09:32:36.190 ,4,0,0.,12.0,0.,12.0,0.,12.0,0.,12.0
1979-07-24 09:32:48.190 ,3,1,0.,12.0,0.,12.0,0.,12.0,0.,12.0
1979-07-24 09:33:00.190 ,3,1,0.,12.0,0.,12.0,0.,12.0,1.,12.0
1979-07-24 09:33:12.190 ,3,0,0.,12.0,0.,12.0,0.,12.0,0.,12.0
1979-07-24 09:33:24.190 ,3,0,0.,12.0,0.,12.0,0.,12.0,0.,12.0
1979-07-24 09:34:24.190 ,0,0,1.,12.0,0.,12.0,0.,12.0,0.,12.0
1979-07-24 09:34:36.190 ,0,0,0.,12.0,0.,12.0,0.,12.0,0.,12.0
1979-07-24 09:34:48.190 ,0,0,0.,12.0,0.,12.0,0.,12.0,0.,12.0
1979-07-24 09:35:00.190 ,0,0,0.,12.0,0.,12.0,0.,12.0,0.,12.0
1979-07-24 09:35:12.190 ,0,1,0.,12.0,0.,12.0,0.,12.0,0.,12.0
1979-07-24 09:35:24.190 ,0,1,0.,12.0,0.,12.0,0.,12.0,0.,12.0
1979-07-24 09:35:36.190 ,0,0,0.,12.0,0.,12.0,0.,12.0,0.,12.0
1979-07-24 09:35:48.190 ,0,0,0.,12.0,0.,12.0,0.,12.0,0.,12.0
1979-07-24 09:36:00.190 ,0,0,0.,12.0,0.,12.0,0.,12.0,0.,12.0
1979-07-24 09:36:12.190 ,0,0,0.,12.0,0.,12.0,0.,12.0,0.,12.0
1979-07-24 09:36:24.190 ,0,0,0.,12.0,0.,12.0,0.,12.0,0.,12.0
1979-07-24 09:36:36.190 ,0,0,1.,12.0,0.,12.0,0.,12.0,0.,12.0
1979-07-24 09:36:48.190 ,1,1,1.,12.0,0.,12.0,0.,12.0,0.,12.0
1979-07-24 09:37:00.190 ,1,1,0.,12.0,0.,12.0,0.,12.0,0.,12.0
1979-07-24 09:37:12.190 ,1,0,0.,12.0,0.,12.0,0.,12.0,0.,12.0
1979-07-24 09:37:24.190 ,1,0,0.,12.0,0.,12.0,0.,12.0,0.,12.0
1979-07-24 09:37:36.190 ,2,1,0.,12.0,0.,12.0,0.,12.0,0.,12.0
1979-07-24 09:37:48.190 ,2,1,0.,12.0,0.,12.0,0.,12.0,0.,12.0
1979-07-24 09:38:00.190 ,2,0,0.,12.0,0.,12.0,0.,12.0,0.,12.0
1979-07-24 09:38:12.190 ,2,0,0.,12.0,0.,12.0,0.,12.0,0.,12.0
1979-07-24 09:38:24.190 ,3,1,0.,12.0,0.,12.0,0.,12.0,0.,12.0
1979-07-24 09:38:36.190 ,3,1,0.,12.0,0.,12.0,0.,12.0,0.,12.0
1979-07-24 09:38:48.190 ,3,0,0.,12.0,0.,12.0,0.,12.0,0.,12.0
1979-07-24 09:39:00.190 ,3,0,0.,12.0,0.,12.0,0.,12.0,0.,12.0
1979-07-24 09:39:12.190 ,4,1,0.,12.0,0.,12.0,0.,12.0,0.,12.0
1979-07-24 09:39:24.190 ,4,1,0.,12.0,0.,12.0,0.,12.0,0.,12.0
1979-07-24 09:39:36.190 ,4,0,0.,12.0,0.,12.0,0.,12.0,0.,12.0
1979-07-24 09:39:48.190 ,4,0,0.,12.0,0.,12.0,0.,12.0,0.,12.0
1979-07-24 09:40:00.190 ,5,1,0.,12.0,0.,12.0,0.,12.0,0.,12.0
1979-07-24 09:40:12.190 ,5,1,0.,12.0,0.,12.0,0.,12.0,0.,12.0
1979-07-24 09:40:24.190 ,5,0,0.,12.0,0.,12.0,0.,12.0,0.,12.0
1979-07-24 09:40:36.190 ,5,0,0.,12.0,0.,12.0,0.,12.0,0.,12.0
1979-07-24 09:40:48.190 ,6,1,0.,12.0,0.,12.0,0.,12.0,0.,12.0
1979-07-24 09:41:00.190 ,6,1,0.,12.0,0.,12.0,0.,12.0,0.,12.0
1979-07-24 09:41:12.190 ,6,0,0.,12.0,0.,12.0,0.,12.0,0.,12.0
1979-07-24 09:41:24.190 ,6,0,0.,12.0,0.,12.0,0.,12.0,0.,12.0
1979-07-24 09:41:36.190 ,7,1,0.,12.0,0.,12.0,0.,12.0,0.,12.0
1979-07-24 09:41:48.190 ,7,1,1.,12.0,0.,12.0,0.,12.0,0.,12.0
1979-07-24 09:42:00.190 ,7,0,0.,12.0,0.,12.0,0.,12.0,0.,12.0
1979-07-24 09:42:12.190 ,7,0,0.,12.0,0.,12.0,0.,12.0,0.,12.0
1979-07-24 09:42:24.190 ,7,1,0.,12.0,0.,12.0,0.,12.0,0.,12.0
1979-07-24 09:42:36.190 ,7,1,0.,12.0,0.,12.0,0.,12.0,0.,12.0
1979-07-24 09:42:48.190 ,7,0,0.,12.0,0.,12.0,0.,12.0,0.,12.0
1979-07-24 09:43:00.190 ,7,0,0.,12.0,0.,12.0,0.,12.0,0.,12.0
1979-07-24 09:43:12.190 ,6,1,0.,12.0,0.,12.0,0.,12.0,0.,12.0
1979-07-24 09:43:24.190 ,6,1,0.,12.0,0.,12.0,0.,12.0,0.,12.0
1979-07-24 09:43:36.190 ,6,0,2.,12.0,0.,12.0,0.,12.0,0.,12.0
1979-07-24 09:43:48.190 ,6,0,1.,12.0,0.,12.0,0.,12.0,0.,12.0
1979-07-24 09:44:00.190 ,5,1,0.,12.0,0.,12.0,0.,12.0,0.,12.0
1979-07-24 09:44:12.190 ,5,1,0.,12.0,0.,12.0,0.,12.0,0.,12.0
1979-07-24 09:44:24.190 ,5,0,0.,12.0,0.,12.0,0.,12.0,0.,12.0
1979-07-24 09:44:36.190 ,5,0,0.,12.0,0.,12.0,0.,12.0,0.,12.0
1979-07-24 09:44:48.190 ,4,1,0.,12.0,0.,12.0,0.,12.0,0.,12.0
1979-07-24 09:45:00.190 ,4,1,0.,12.0,0.,12.0,0.,12.0,0.,12.0
1979-07-24 09:45:12.190 ,4,0,0.,12.0,0.,12.0,0.,12.0,0.,12.0
1979-07-24 09:45:24.190 ,4,0,0.,12.0,0.,12.0,0.,12.0,0.,12.0
1979-07-24 09:45:36.190 ,3,1,0.,12.0,0.,12.0,0.,12.0,0.,12.0
1979-07-24 09:45:48.190 ,3,1,0.,12.0,0.,12.0,0.,12.0,0.,12.0
1979-07-24 09:46:00.190 ,3,0,0.,12.0,0.,12.0,0.,12.0,0.,12.0
1979-07-24 09:46:12.190 ,3,0,0.,12.0,0.,12.0,0.,12.0,0.,12.0
1979-07-24 09:46:24.190 ,2,1,0.,12.0,0.,12.0,0.,12.0,0.,12.0
1979-07-24 09:46:36.190 ,2,1,0.,12.0,0.,12.0,0.,12.0,0.,12.0
1979-07-24 09:46:48.190 ,2,0,0.,12.0,0.,12.0,0.,12.0,0.,12.0
1979-07-24 09:47:00.190 ,2,0,0.,12.0,0.,12.0,0.,12.0,0.,12.0
1979-07-24 09:47:12.190 ,1,1,0.,12.0,0.,12.0,0.,12.0,0.,12.0
1979-07-24 09:47:24.190 ,1,1,0.,12.0,0.,12.0,0.,12.0,0.,12.0
1979-07-24 09:47:36.190 ,1,0,0.,12.0,0.,12.0,0.,12.0,0.,12.0
1979-07-24 09:47:48.190 ,1,0,0.,12.0,0.,12.0,0.,12.0,0.,12.0
1979-07-24 09:48:00.190 ,0,1,0.,12.0,0.,12.0,0.,12.0,0.,12.0
1979-07-24 09:48:12.190 ,0,1,0.,12.0,0.,12.0,0.,12.0,0.,12.0
1979-07-24 09:48:24.190 ,0,0,0.,12.0,0.,12.0,0.,12.0,0.,12.0
1979-07-24 09:48:36.190 ,0,0,1.,12.0,0.,12.0,0.,12.0,0.,12.0
1979-07-24 09:48:48.190 ,0,1,0.,12.0,0.,12.0,0.,12.0,0.,12.0
1979-07-24 09:49:00.190 ,0,1,0.,12.0,0.,12.0,0.,12.0,0.,12.0
1979-07-24 09:49:12.190 ,0,0,0.,12.0,0.,12.0,0.,12.0,0.,12.0
1979-07-24 09:49:24.190 ,0,0,0.,12.0,0.,12.0,0.,12.0,0.,12.0
1979-07-24 09:49:36.190 ,1,1,0.,12.0,0.,12.0,0.,12.0,0.,12.0
1979-07-24 09:49:48.190 ,1,1,0.,12.0,0.,12.0,0.,12.0,0.,12.0
1979-07-24 09:50:00.190 ,1,0,0.,12.0,0.,12.0,0.,12.0,0.,12.0
1979-07-24 09:50:12.190 ,1,0,0.,12.0,0.,12.0,0.,12.0,0.,12.0
1979-07-24 09:50:24.190 ,2,1,0.,12.0,0.,12.0,0.,12.0,0.,12.0
1979-07-24 09:50:36.190 ,2,1,0.,12.0,0.,12.0,0.,12.0,0.,12.0
1979-07-24 09:50:48.190 ,2,0,0.,12.0,0.,12.0,0.,12.0,0.,12.0
1979-07-24 09:51:00.190 ,2,0,0.,12.0,0.,12.0,0.,12.0,0.,12.0
1979-07-24 09:51:12.190 ,3,1,0.,12.0,0.,12.0,0.,12.0,0.,12.0
1979-07-24 09:51:24.190 ,3,1,0.,12.0,0.,12.0,0.,12.0,0.,12.0
1979-07-24 09:51:36.190 ,3,0,1.,12.0,0.,12.0,0.,12.0,0.,12.0
1979-07-24 09:51:48.190 ,3,0,0.,12.0,0.,12.0,0.,12.0,0.,12.0
1979-07-24 09:52:00.190 ,4,1,0.,12.0,0.,12.0,0.,12.0,0.,12.0
1979-07-24 09:52:12.190 ,4,1,0.,12.0,0.,12.0,0.,12.0,0.,12.0
1979-07-24 09:52:24.190 ,4,0,0.,12.0,0.,12.0,0.,12.0,0.,12.0
1979-07-24 09:52:36.190 ,4,0,1.,12.0,0.,12.0,0.,12.0,0.,12.0
1979-07-24 09:52:48.190 ,5,1,0.,12.0,0.,12.0,0.,12.0,0.,12.0
1979-07-24 09:53:00.190 ,5,1,0.,12.0,0.,12.0,0.,12.0,0.,12.0
1979-07-24 09:53:12.190 ,5,0,0.,12.0,0.,12.0,0.,12.0,0.,12.0
1979-07-24 09:53:24.190 ,5,0,0.,12.0,0.,12.0,0.,12.0,0.,12.0
1979-07-24 09:53:36.190 ,6,1,0.,12.0,0.,12.0,0.,12.0,0.,12.0
1979-07-24 09:53:48.190 ,6,1,0.,12.0,0.,12.0,0.,12.0,0.,12.0
1979-07-24 09:54:00.190 ,6,0,0.,12.0,0.,12.0,0.,12.0,0.,12.0
1979-07-24 09:54:12.190 ,6,0,0.,12.0,0.,12.0,0.,12.0,0.,12.0
1979-07-24 09:54:24.190 ,7,0,0.,12.0,0.,12.0,0.,12.0,0.,12.0
1979-07-24 09:54:36.190 ,7,0,0.,12.0,0.,12.0,0.,12.0,0.,12.0
1979-07-24 09:54:48.190 ,7,0,0.,12.0,0.,12.0,0.,12.0,0.,12.0
1979-07-24 09:55:00.190 ,7,0,0.,12.0,0.,12.0,0.,12.0,0.,12.0
1979-07-24 09:55:12.190 ,4,1,0.,12.0,0.,12.0,0.,12.0,0.,12.0
1979-07-24 09:55:24.190 ,4,1,0.,12.0,0.,12.0,0.,12.0,0.,12.0
1979-07-24 09:55:36.190 ,0,1,0.,12.0,0.,12.0,0.,12.0,0.,12.0
1979-07-24 09:55:48.190 ,0,1,0.,12.0,0.,12.0,0.,12.0,0.,12.0
1979-07-24 09:56:00.190 ,3,1,0.,12.0,0.,12.0,0.,12.0,0.,12.0
1979-07-24 09:56:12.190 ,3,1,0.,12.0,0.,12.0,0.,12.0,0.,12.0
1979-07-24 09:56:24.190 ,7,1,0.,12.0,0.,12.0,0.,12.0,0.,12.0
1979-07-24 09:56:36.190 ,7,1,0.,12.0,0.,12.0,0.,12.0,0.,12.0
1979-07-24 09:56:48.190 ,4,1,0.,12.0,0.,12.0,0.,12.0,0.,12.0
1979-07-24 09:57:00.190 ,4,1,0.,12.0,0.,12.0,0.,12.0,0.,12.0
1979-07-24 09:57:12.190 ,0,1,0.,12.0,0.,12.0,0.,12.0,0.,12.0
1979-07-24 09:57:24.190 ,0,1,0.,12.0,0.,12.0,0.,12.0,0.,12.0
1979-07-24 09:57:36.190 ,3,1,0.,12.0,0.,12.0,0.,12.0,0.,12.0
1979-07-24 09:57:48.190 ,3,1,1.,12.0,0.,12.0,0.,12.0,0.,12.0
1979-07-24 09:58:00.190 ,7,1,0.,12.0,0.,12.0,0.,12.0,0.,12.0
1979-07-24 09:58:12.190 ,7,1,1.,12.0,0.,12.0,0.,12.0,0.,12.0
1979-07-24 09:58:24.190 ,4,1,0.,12.0,0.,12.0,0.,12.0,0.,12.0
1979-07-24 09:58:36.190 ,4,1,0.,12.0,0.,12.0,0.,12.0,0.,12.0
1979-07-24 09:58:48.190 ,0,1,0.,12.0,0.,12.0,0.,12.0,0.,12.0
1979-07-24 09:59:00.190 ,0,1,0.,12.0,0.,12.0,0.,12.0,0.,12.0
1979-07-24 09:59:12.190 ,3,1,1.,12.0,0.,12.0,0.,12.0,0.,12.0
1979-07-24 09:59:24.190 ,3,1,0.,12.0,0.,12.0,0.,12.0,0.,12.0
1979-07-24 09:59:36.190 ,7,1,0.,12.0,0.,12.0,0.,12.0,0.,12.0
1979-07-24 09:59:48.190 ,7,1,0.,12.0,0.,12.0,0.,12.0,0.,12.0
1979-07-24 10:00:00.190 ,4,1,0.,12.0,0.,12.0,0.,12.0,0.,12.0
1979-07-24 10:00:12.190 ,4,1,0.,12.0,0.,12.0,0.,12.0,0.,12.0
1979-07-24 10:00:24.190 ,0,1,0.,12.0,0.,12.0,0.,12.0,0.,12.0
1979-07-24 10:00:36.190 ,0,1,0.,12.0,0.,12.0,0.,12.0,0.,12.0
1979-07-24 10:00:48.190 ,3,1,0.,12.0,0.,12.0,0.,12.0,0.,12.0
1979-07-24 10:01:00.190 ,3,1,0.,12.0,0.,12.0,0.,12.0,0.,12.0
1979-07-24 10:01:12.190 ,7,1,0.,12.0,0.,12.0,0.,12.0,0.,12.0
1979-07-24 10:01:24.190 ,7,1,0.,12.0,0.,12.0,0.,12.0,0.,12.0
1979-07-24 10:01:36.190 ,4,1,0.,12.0,0.,12.0,0.,12.0,0.,12.0
1979-07-24 10:01:48.190 ,4,1,0.,12.0,0.,12.0,0.,12.0,0.,12.0
1979-07-24 10:02:00.190 ,0,1,0.,12.0,0.,12.0,0.,12.0,0.,12.0
1979-07-24 10:02:12.190 ,0,1,0.,12.0,0.,12.0,0.,12.0,0.,12.0
1979-07-24 10:02:24.190 ,3,1,0.,12.0,0.,12.0,0.,12.0,0.,12.0
1979-07-24 10:02:36.190 ,3,1,1.,12.0,0.,12.0,0.,12.0,0.,12.0
1979-07-24 10:02:48.190 ,7,1,0.,12.0,0.,12.0,0.,12.0,0.,12.0
1979-07-24 10:03:00.190 ,7,1,0.,12.0,0.,12.0,0.,12.0,0.,12.0
1979-07-24 10:03:12.190 ,4,1,0.,12.0,0.,12.0,0.,12.0,0.,12.0
1979-07-24 10:03:24.190 ,4,1,0.,12.0,0.,12.0,0.,12.0,0.,12.0
1979-07-24 10:03:36.190 ,0,1,0.,12.0,0.,12.0,0.,12.0,0.,12.0
1979-07-24 10:03:48.190 ,0,1,0.,12.0,0.,12.0,0.,12.0,0.,12.0
1979-07-24 10:04:00.190 ,3,1,0.,12.0,0.,12.0,0.,12.0,0.,12.0
1979-07-24 10:04:12.190 ,3,1,0.,12.0,0.,12.0,0.,12.0,0.,12.0
1979-07-24 10:04:24.190 ,7,1,0.,12.0,0.,12.0,0.,12.0,0.,12.0
1979-07-24 10:04:36.190 ,7,1,0.,12.0,0.,12.0,0.,12.0,0.,12.0
1979-07-24 10:04:48.190 ,4,1,0.,12.0,0.,12.0,0.,12.0,0.,12.0
1979-07-24 10:05:00.190 ,4,1,0.,12.0,0.,12.0,0.,12.0,0.,12.0
1979-07-24 10:05:12.190 ,0,1,0.,12.0,0.,12.0,0.,12.0,0.,12.0
1979-07-24 10:05:24.190 ,0,1,0.,12.0,0.,12.0,0.,12.0,0.,12.0
1979-07-24 10:05:36.190 ,0,0,0.,12.0,0.,12.0,0.,12.0,0.,12.0
1979-07-24 10:05:48.190 ,0,0,0.,12.0,0.,12.0,0.,12.0,0.,12.0
1979-07-24 10:06:00.190 ,0,0,0.,12.0,0.,12.0,0.,12.0,0.,12.0
1979-07-24 10:06:12.190 ,0,0,1.,12.0,0.,12.0,0.,12.0,0.,12.0
1979-07-24 10:06:24.190 ,5,1,0.,12.0,0.,12.0,0.,12.0,0.,12.0
1979-07-24 10:06:36.190 ,5,1,0.,12.0,0.,12.0,0.,12.0,0.,12.0
1979-07-24 10:06:48.190 ,5,0,0.,12.0,0.,12.0,0.,12.0,0.,12.0
1979-07-24 10:07:00.190 ,5,0,0.,12.0,0.,12.0,0.,12.0,0.,12.0
1979-07-24 10:07:12.190 ,4,1,1.,12.0,0.,12.0,0.,12.0,0.,12.0
1979-07-24 10:07:24.190 ,4,1,0.,12.0,0.,12.0,0.,12.0,0.,12.0
1979-07-24 10:07:36.190 ,4,0,0.,12.0,0.,12.0,0.,12.0,0.,12.0
1979-07-24 10:07:48.190 ,4,0,0.,12.0,0.,12.0,0.,12.0,0.,12.0
1979-07-24 10:08:00.190 ,3,1,0.,12.0,0.,12.0,0.,12.0,0.,12.0
1979-07-24 10:08:12.190 ,3,1,0.,12.0,0.,12.0,0.,12.0,0.,12.0
1979-07-24 10:08:24.190 ,3,0,0.,12.0,0.,12.0,0.,12.0,0.,12.0
1979-07-24 10:08:36.190 ,3,0,0.,12.0,0.,12.0,0.,12.0,0.,12.0
1979-07-24 10:08:48.190 ,2,1,0.,12.0,0.,12.0,0.,12.0,0.,12.0
1979-07-24 10:09:00.190 ,2,1,0.,12.0,0.,12.0,0.,12.0,0.,12.0
1979-07-24 10:09:12.190 ,2,0,0.,12.0,0.,12.0,0.,12.0,0.,12.0
1979-07-24 10:09:24.190 ,2,0,0.,12.0,0.,12.0,0.,12.0,0.,12.0
1979-07-24 10:09:36.190 ,1,1,0.,12.0,0.,12.0,0.,12.0,0.,12.0
1979-07-24 10:09:48.190 ,1,1,0.,12.0,0.,12.0,0.,12.0,0.,12.0
1979-07-24 10:10:00.190 ,1,0,0.,12.0,0.,12.0,0.,12.0,0.,12.0
1979-07-24 10:10:12.190 ,1,0,0.,12.0,1.,12.0,0.,12.0,0.,12.0
1979-07-24 10:10:24.190 ,0,1,0.,12.0,0.,12.0,0.,12.0,0.,12.0
1979-07-24 10:10:36.190 ,0,1,0.,12.0,0.,12.0,0.,12.0,0.,12.0
1979-07-24 10:10:48.190 ,0,0,0.,12.0,0.,12.0,0.,12.0,0.,12.0
1979-07-24 10:11:00.190 ,0,0,0.,12.0,0.,12.0,0.,12.0,0.,12.0
1979-07-24 10:11:12.190 ,0,1,0.,12.0,0.,12.0,0.,12.0,0.,12.0
1979-07-24 10:11:24.190 ,0,1,0.,12.0,0.,12.0,0.,12.0,0.,12.0
1979-07-24 10:11:36.190 ,0,0,0.,12.0,0.,12.0,0.,12.0,0.,12.0
1979-07-24 10:11:48.190 ,0,0,0.,12.0,0.,12.0,0.,12.0,0.,12.0
1979-07-24 10:12:00.190 ,1,1,0.,12.0,0.,12.0,0.,12.0,0.,12.0
1979-07-24 10:12:12.190 ,1,1,0.,12.0,0.,12.0,0.,12.0,0.,12.0
1979-07-24 10:12:24.190 ,1,0,0.,12.0,0.,12.0,0.,12.0,0.,12.0
1979-07-24 10:12:36.190 ,1,0,0.,12.0,0.,12.0,0.,12.0,0.,12.0
1979-07-24 10:12:48.190 ,2,1,0.,12.0,0.,12.0,0.,12.0,0.,12.0
1979-07-24 10:13:00.190 ,2,1,0.,12.0,0.,12.0,0.,12.0,0.,12.0
1979-07-24 10:13:12.190 ,2,0,0.,12.0,0.,12.0,0.,12.0,0.,12.0
1979-07-24 10:13:24.190 ,2,0,0.,12.0,0.,12.0,0.,12.0,0.,12.0
1979-07-24 10:13:36.190 ,3,1,0.,12.0,0.,12.0,0.,12.0,0.,12.0
1979-07-24 10:13:48.190 ,3,1,0.,12.0,0.,12.0,0.,12.0,0.,12.0
1979-07-24 10:14:00.190 ,3,0,0.,12.0,0.,12.0,0.,12.0,0.,12.0
1979-07-24 10:14:12.190 ,3,0,0.,12.0,0.,12.0,0.,12.0,0.,12.0
1979-07-24 10:14:24.190 ,4,1,0.,12.0,0.,12.0,0.,12.0,0.,12.0
1979-07-24 10:14:36.190 ,4,1,0.,12.0,0.,12.0,0.,12.0,0.,12.0
1979-07-24 10:14:48.190 ,4,0,0.,12.0,0.,12.0,0.,12.0,0.,12.0
1979-07-24 10:15:00.190 ,4,0,0.,12.0,0.,12.0,0.,12.0,0.,12.0
1979-07-24 10:15:12.190 ,5,1,0.,12.0,0.,12.0,0.,12.0,0.,12.0
1979-07-24 10:15:24.190 ,5,1,0.,12.0,0.,12.0,0.,12.0,0.,12.0
1979-07-24 10:15:36.190 ,5,0,0.,12.0,0.,12.0,0.,12.0,0.,12.0
1979-07-24 10:15:48.190 ,5,0,0.,12.0,0.,12.0,0.,12.0,0.,12.0
1979-07-24 10:16:00.190 ,6,1,0.,12.0,0.,12.0,0.,12.0,0.,12.0
1979-07-24 10:16:12.190 ,6,1,0.,12.0,0.,12.0,0.,12.0,0.,12.0
1979-07-24 10:16:24.190 ,6,0,0.,12.0,0.,12.0,0.,12.0,0.,12.0
1979-07-24 10:16:36.190 ,6,0,0.,12.0,0.,12.0,0.,12.0,0.,12.0
1979-07-24 10:16:48.190 ,7,1,0.,12.0,0.,12.0,0.,12.0,0.,12.0
1979-07-24 10:17:00.190 ,7,1,0.,12.0,0.,12.0,0.,12.0,0.,12.0
1979-07-24 10:17:12.190 ,7,0,0.,12.0,0.,12.0,0.,12.0,0.,12.0
1979-07-24 10:17:24.190 ,7,0,0.,12.0,0.,12.0,0.,12.0,0.,12.0
1979-07-24 10:17:36.190 ,7,1,0.,12.0,0.,12.0,0.,12.0,0.,12.0
1979-07-24 10:17:48.190 ,7,1,0.,12.0,0.,12.0,0.,12.0,0.,12.0
1979-07-24 10:18:00.190 ,7,0,0.,12.0,0.,12.0,0.,12.0,0.,12.0
1979-07-24 10:18:12.190 ,7,0,0.,12.0,0.,12.0,0.,12.0,0.,12.0